Time,TemperatureF,DewpointF,PressureIn,WindDirection,WindDirectionDegrees,WindSpeedMPH,WindSpeedGustMPH,Humidity,HourlyPrecipIn,Conditions,Clouds,dailyrainin,SoftwareType,DateUTC
2013-03-23 00:00:00,34.7,21.0,30.04,WNW,293,2.0,-999.0,57,0.00,,,0.00,Wunderground v.1.15,2013-03-23 04:00:00,
2013-03-23 00:05:00,34.7,21.0,30.04,WNW,293,2.0,-999.0,57,0.00,,,0.00,Wunderground v.1.15,2013-03-23 04:05:00,
2013-03-23 00:10:00,34.8,21.1,30.04,NW,315,2.0,-999.0,57,0.00,,,0.00,Wunderground v.1.15,2013-03-23 04:10:00,
2013-03-23 00:15:00,34.9,21.2,30.04,WNW,293,2.0,-999.0,57,0.00,,,0.00,Wunderground v.1.15,2013-03-23 04:15:00,
2013-03-23 00:20:00,34.7,21.0,30.04,WNW,293,2.0,-999.0,57,0.00,,,0.00,Wunderground v.1.15,2013-03-23 04:20:00,
2013-03-23 00:25:00,34.8,21.1,30.04,WNW,293,1.0,-999.0,57,0.00,,,0.00,Wunderground v.1.15,2013-03-23 04:25:00,
2013-03-23 00:30:00,34.5,20.8,30.04,WNW,293,1.0,-999.0,57,0.00,,,0.00,Wunderground v.1.15,2013-03-23 04:30:00,
2013-03-23 00:35:00,34.7,21.0,30.04,WNW,293,2.0,-999.0,57,0.00,,,0.00,Wunderground v.1.15,2013-03-23 04:35:00,
2013-03-23 00:40:00,34.6,20.9,30.05,WNW,293,2.0,-999.0,57,0.00,,,0.00,Wunderground v.1.15,2013-03-23 04:40:00,
2013-03-23 00:45:00,34.5,21.2,30.04,NW,315,2.0,-999.0,58,0.00,,,0.00,Wunderground v.1.15,2013-03-23 04:45:00,
2013-03-23 00:50:00,34.4,21.1,30.04,WNW,293,2.0,-999.0,58,0.00,,,0.00,Wunderground v.1.15,2013-03-23 04:50:00,
2013-03-23 00:55:00,34.4,21.1,30.04,West,270,3.0,-999.0,58,0.00,,,0.00,Wunderground v.1.15,2013-03-23 04:55:00,
2013-03-23 01:00:00,34.4,21.5,30.04,West,270,4.0,-999.0,59,0.00,,,0.00,Wunderground v.1.15,2013-03-23 05:00:00,
2013-03-23 01:05:00,34.5,21.2,30.04,West,270,4.0,-999.0,58,0.00,,,0.00,Wunderground v.1.15,2013-03-23 05:05:00,
2013-03-23 01:10:00,34.4,21.1,30.04,NW,315,4.0,-999.0,58,0.00,,,0.00,Wunderground v.1.15,2013-03-23 05:10:00,
2013-03-23 01:15:00,34.3,21.0,30.04,WNW,293,4.0,-999.0,58,0.00,,,0.00,Wunderground v.1.15,2013-03-23 05:15:00,
2013-03-23 01:20:00,34.3,21.4,30.04,WNW,293,4.0,-999.0,59,0.00,,,0.00,Wunderground v.1.15,2013-03-23 05:20:00,
2013-03-23 01:25:00,34.1,21.3,30.04,WNW,293,4.0,-999.0,59,0.00,,,0.00,Wunderground v.1.15,2013-03-23 05:25:00,
2013-03-23 01:30:00,33.9,21.1,30.04,WNW,293,3.0,-999.0,59,0.00,,,0.00,Wunderground v.1.15,2013-03-23 05:30:00,
2013-03-23 01:35:00,33.9,21.1,30.04,WNW,293,5.0,-999.0,59,0.00,,,0.00,Wunderground v.1.15,2013-03-23 05:35:00,
2013-03-23 01:40:00,33.9,21.1,30.04,West,270,4.0,-999.0,59,0.00,,,0.00,Wunderground v.1.15,2013-03-23 05:40:00,
2013-03-23 01:45:00,33.9,21.5,30.04,WNW,293,5.0,-999.0,60,0.00,,,0.00,Wunderground v.1.15,2013-03-23 05:45:00,
2013-03-23 01:50:00,34.0,21.2,30.04,West,270,5.0,-999.0,59,0.00,,,0.00,Wunderground v.1.15,2013-03-23 05:50:00,
2013-03-23 01:55:00,34.1,21.3,30.03,WNW,293,5.0,-999.0,59,0.00,,,0.00,Wunderground v.1.15,2013-03-23 05:55:00,
2013-03-23 02:00:00,34.0,21.2,30.03,WNW,293,5.0,-999.0,59,0.00,,,0.00,Wunderground v.1.15,2013-03-23 06:00:00,
2013-03-23 02:05:00,33.8,21.4,30.03,WNW,293,3.0,-999.0,60,0.00,,,0.00,Wunderground v.1.15,2013-03-23 06:05:00,
2013-03-23 02:10:00,33.7,21.3,30.03,West,270,3.0,-999.0,60,0.00,,,0.00,Wunderground v.1.15,2013-03-23 06:10:00,
2013-03-23 02:15:00,33.7,21.3,30.03,West,270,3.0,-999.0,60,0.00,,,0.00,Wunderground v.1.15,2013-03-23 06:15:00,
2013-03-23 02:20:00,33.4,21.0,30.03,West,270,2.0,-999.0,60,0.00,,,0.00,Wunderground v.1.15,2013-03-23 06:20:00,
2013-03-23 02:25:00,33.3,21.3,30.03,West,270,3.0,-999.0,61,0.00,,,0.00,Wunderground v.1.15,2013-03-23 06:25:00,
2013-03-23 02:30:00,33.2,21.2,30.03,WNW,293,3.0,-999.0,61,0.00,,,0.00,Wunderground v.1.15,2013-03-23 06:30:00,
2013-03-23 02:35:00,33.3,21.3,30.03,WNW,293,4.0,-999.0,61,0.00,,,0.00,Wunderground v.1.15,2013-03-23 06:35:00,
2013-03-23 02:40:00,33.3,21.3,30.03,WNW,293,4.0,-999.0,61,0.00,,,0.00,Wunderground v.1.15,2013-03-23 06:40:00,
2013-03-23 02:45:00,33.2,21.6,30.03,WNW,293,4.0,-999.0,62,0.00,,,0.00,Wunderground v.1.15,2013-03-23 06:45:00,
2013-03-23 02:50:00,33.2,21.6,30.03,WNW,293,4.0,-999.0,62,0.00,,,0.00,Wunderground v.1.15,2013-03-23 06:50:00,
2013-03-23 02:55:00,33.1,21.5,30.03,West,270,4.0,-999.0,62,0.00,,,0.00,Wunderground v.1.15,2013-03-23 06:55:00,
2013-03-23 03:00:00,33.0,21.4,30.03,WNW,293,4.0,-999.0,62,0.00,,,0.00,Wunderground v.1.15,2013-03-23 07:00:00,
2013-03-23 03:05:00,33.0,21.4,30.03,WNW,293,4.0,-999.0,62,0.00,,,0.00,Wunderground v.1.15,2013-03-23 07:05:00,
2013-03-23 03:10:00,32.9,21.3,30.03,WNW,293,3.0,-999.0,62,0.00,,,0.00,Wunderground v.1.15,2013-03-23 07:10:00,
2013-03-23 03:15:00,32.8,21.2,30.03,WNW,293,3.0,-999.0,62,0.00,,,0.00,Wunderground v.1.15,2013-03-23 07:15:00,
2013-03-23 03:20:00,32.8,21.6,30.03,West,270,4.0,-999.0,63,0.00,,,0.00,Wunderground v.1.15,2013-03-23 07:20:00,
2013-03-23 03:25:00,32.8,21.6,30.03,West,270,4.0,-999.0,63,0.00,,,0.00,Wunderground v.1.15,2013-03-23 07:25:00,
2013-03-23 03:30:00,32.7,21.5,30.03,West,270,3.0,-999.0,63,0.00,,,0.00,Wunderground v.1.15,2013-03-23 07:30:00,
2013-03-23 03:35:00,32.4,21.6,30.02,WNW,293,3.0,-999.0,64,0.00,,,0.00,Wunderground v.1.15,2013-03-23 07:35:00,
2013-03-23 03:40:00,32.1,21.3,30.02,West,270,3.0,-999.0,64,0.00,,,0.00,Wunderground v.1.15,2013-03-23 07:40:00,
2013-03-23 03:45:00,32.2,21.4,30.02,West,270,4.0,-999.0,64,0.00,,,0.00,Wunderground v.1.15,2013-03-23 07:45:00,
2013-03-23 03:50:00,32.2,21.4,30.02,WNW,293,3.0,-999.0,64,0.00,,,0.00,Wunderground v.1.15,2013-03-23 07:50:00,
2013-03-23 03:55:00,32.1,21.3,30.03,West,270,3.0,-999.0,64,0.00,,,0.00,Wunderground v.1.15,2013-03-23 07:55:00,
2013-03-23 04:00:00,32.2,21.4,30.03,West,270,3.0,-999.0,64,0.00,,,0.00,Wunderground v.1.15,2013-03-23 08:00:00,
2013-03-23 04:05:00,32.1,21.3,30.03,West,270,3.0,-999.0,64,0.00,,,0.00,Wunderground v.1.15,2013-03-23 08:05:00,
2013-03-23 04:10:00,32.0,21.2,30.03,West,270,3.0,-999.0,64,0.00,,,0.00,Wunderground v.1.15,2013-03-23 08:10:00,
2013-03-23 04:15:00,31.9,21.1,30.03,West,270,2.0,-999.0,64,0.00,,,0.00,Wunderground v.1.15,2013-03-23 08:15:00,
2013-03-23 04:20:00,31.8,21.0,30.03,West,270,1.0,-999.0,64,0.00,,,0.00,Wunderground v.1.15,2013-03-23 08:20:00,
2013-03-23 04:25:00,31.7,20.9,30.03,West,270,1.0,-999.0,64,0.00,,,0.00,Wunderground v.1.15,2013-03-23 08:25:00,
2013-03-23 04:30:00,31.5,21.1,30.03,West,270,0.0,-999.0,65,0.00,,,0.00,Wunderground v.1.15,2013-03-23 08:30:00,
2013-03-23 04:35:00,31.3,20.9,30.03,West,270,0.0,-999.0,65,0.00,,,0.00,Wunderground v.1.15,2013-03-23 08:35:00,
2013-03-23 04:40:00,31.2,20.8,30.03,West,270,1.0,-999.0,65,0.00,,,0.00,Wunderground v.1.15,2013-03-23 08:40:00,
2013-03-23 04:45:00,31.2,20.8,30.03,West,270,1.0,-999.0,65,0.00,,,0.00,Wunderground v.1.15,2013-03-23 08:45:00,
2013-03-23 04:50:00,31.3,20.9,30.03,West,270,1.0,-999.0,65,0.00,,,0.00,Wunderground v.1.15,2013-03-23 08:50:00,
2013-03-23 04:55:00,31.3,21.3,30.03,West,270,2.0,-999.0,66,0.00,,,0.00,Wunderground v.1.15,2013-03-23 08:55:00,
2013-03-23 05:00:00,31.3,21.3,30.03,West,270,1.0,-999.0,66,0.00,,,0.00,Wunderground v.1.15,2013-03-23 09:00:00,
2013-03-23 05:05:00,31.3,20.9,30.03,West,270,1.0,-999.0,65,0.00,,,0.00,Wunderground v.1.15,2013-03-23 09:05:00,
2013-03-23 05:10:00,31.2,21.2,30.03,West,270,1.0,-999.0,66,0.00,,,0.00,Wunderground v.1.15,2013-03-23 09:10:00,
2013-03-23 05:15:00,31.0,21.0,30.03,West,270,1.0,-999.0,66,0.00,,,0.00,Wunderground v.1.15,2013-03-23 09:15:00,
2013-03-23 05:20:00,31.0,21.0,30.03,West,270,1.0,-999.0,66,0.00,,,0.00,Wunderground v.1.15,2013-03-23 09:20:00,
2013-03-23 05:25:00,30.8,21.1,30.03,West,270,0.0,-999.0,67,0.00,,,0.00,Wunderground v.1.15,2013-03-23 09:25:00,
2013-03-23 05:30:00,30.6,20.9,30.03,West,270,1.0,-999.0,67,0.00,,,0.00,Wunderground v.1.15,2013-03-23 09:30:00,
2013-03-23 05:35:00,30.4,20.7,30.02,West,270,1.0,-999.0,67,0.00,,,0.00,Wunderground v.1.15,2013-03-23 09:35:00,
2013-03-23 05:40:00,30.3,21.0,30.03,West,270,1.0,-999.0,68,0.00,,,0.00,Wunderground v.1.15,2013-03-23 09:40:00,
2013-03-23 05:45:00,30.1,21.2,30.02,West,270,2.0,-999.0,69,0.00,,,0.00,Wunderground v.1.15,2013-03-23 09:45:00,
2013-03-23 05:50:00,30.1,21.2,30.02,West,270,2.0,-999.0,69,0.00,,,0.00,Wunderground v.1.15,2013-03-23 09:50:00,
2013-03-23 05:55:00,30.3,21.3,30.02,WNW,293,3.0,-999.0,69,0.00,,,0.00,Wunderground v.1.15,2013-03-23 09:55:00,
2013-03-23 06:00:00,30.5,21.5,30.02,WNW,293,3.0,-999.0,69,0.00,,,0.00,Wunderground v.1.15,2013-03-23 10:00:00,
2013-03-23 06:05:00,30.5,21.5,30.03,West,270,3.0,-999.0,69,0.00,,,0.00,Wunderground v.1.15,2013-03-23 10:05:00,
2013-03-23 06:10:00,30.7,21.4,30.03,WNW,293,3.0,-999.0,68,0.00,,,0.00,Wunderground v.1.15,2013-03-23 10:10:00,
2013-03-23 06:15:00,31.0,21.7,30.03,NW,315,3.0,-999.0,68,0.00,,,0.00,Wunderground v.1.15,2013-03-23 10:15:00,
2013-03-23 06:20:00,31.3,21.6,30.03,WNW,293,3.0,-999.0,67,0.00,,,0.00,Wunderground v.1.15,2013-03-23 10:20:00,
2013-03-23 06:25:00,31.5,21.8,30.03,WNW,293,3.0,-999.0,67,0.00,,,0.00,Wunderground v.1.15,2013-03-23 10:25:00,
2013-03-23 06:30:00,31.5,21.4,30.03,WNW,293,3.0,-999.0,66,0.00,,,0.00,Wunderground v.1.15,2013-03-23 10:30:00,
2013-03-23 06:35:00,31.6,21.5,30.03,WNW,293,3.0,-999.0,66,0.00,,,0.00,Wunderground v.1.15,2013-03-23 10:35:00,
2013-03-23 06:40:00,31.7,21.6,30.03,WNW,293,3.0,-999.0,66,0.00,,,0.00,Wunderground v.1.15,2013-03-23 10:40:00,
2013-03-23 06:45:00,31.6,21.5,30.03,WNW,293,2.0,-999.0,66,0.00,,,0.00,Wunderground v.1.15,2013-03-23 10:45:00,
2013-03-23 06:50:00,31.6,21.5,30.04,WNW,293,2.0,-999.0,66,0.00,,,0.00,Wunderground v.1.15,2013-03-23 10:50:00,
2013-03-23 06:55:00,31.8,21.4,30.04,WNW,293,2.0,-999.0,65,0.00,,,0.00,Wunderground v.1.15,2013-03-23 10:55:00,
2013-03-23 07:00:00,31.7,21.3,30.05,WNW,293,1.0,-999.0,65,0.00,,,0.00,Wunderground v.1.15,2013-03-23 11:00:00,
2013-03-23 07:05:00,31.2,21.2,30.05,WNW,293,1.0,-999.0,66,0.00,,,0.00,Wunderground v.1.15,2013-03-23 11:05:00,
2013-03-23 07:10:00,30.8,21.1,30.05,WNW,293,1.0,-999.0,67,0.00,,,0.00,Wunderground v.1.15,2013-03-23 11:10:00,
2013-03-23 07:15:00,30.6,21.3,30.05,WNW,293,1.0,-999.0,68,0.00,,,0.00,Wunderground v.1.15,2013-03-23 11:15:00,
2013-03-23 07:20:00,30.6,21.3,30.05,WNW,293,1.0,-999.0,68,0.00,,,0.00,Wunderground v.1.15,2013-03-23 11:20:00,
2013-03-23 07:25:00,30.6,21.3,30.05,WNW,293,1.0,-999.0,68,0.00,,,0.00,Wunderground v.1.15,2013-03-23 11:25:00,
2013-03-23 07:37:00,30.3,21.3,30.05,SW,230,4.0,5.0,69,0.00,,,0.00,Wunderground v.1.15,2013-03-23 11:37:00,
2013-03-23 07:42:00,30.4,21.8,30.05,SW,220,4.0,4.0,70,0.00,,,0.00,Wunderground v.1.15,2013-03-23 11:42:00,
2013-03-23 07:47:00,30.7,21.7,30.05,SW,220,1.0,4.0,69,0.00,,,0.00,Wunderground v.1.15,2013-03-23 11:47:00,
2013-03-23 07:52:00,30.7,22.1,30.05,SW,219,2.0,3.0,70,0.00,,,0.00,Wunderground v.1.15,2013-03-23 11:52:00,
2013-03-23 07:57:00,31.1,22.1,30.05,SSW,212,5.0,5.0,69,0.00,,,0.00,Wunderground v.1.15,2013-03-23 11:57:00,
2013-03-23 08:02:00,31.9,22.2,30.05,SSW,212,2.0,3.0,67,0.00,,,0.00,Wunderground v.1.15,2013-03-23 12:02:00,
2013-03-23 08:07:00,32.4,22.7,30.05,SSW,212,0.0,3.0,67,0.00,,,0.00,Wunderground v.1.15,2013-03-23 12:07:00,
2013-03-23 08:12:00,32.7,22.6,30.05,SW,228,1.0,2.0,66,0.00,,,0.00,Wunderground v.1.15,2013-03-23 12:12:00,
2013-03-23 08:17:00,33.4,23.3,30.05,West,269,3.0,3.0,66,0.00,,,0.00,Wunderground v.1.15,2013-03-23 12:17:00,
2013-03-23 08:22:00,33.7,22.8,30.05,West,266,3.0,4.0,64,0.00,,,0.00,Wunderground v.1.15,2013-03-23 12:22:00,
2013-03-23 08:27:00,34.1,23.2,30.05,West,277,3.0,5.0,64,0.00,,,0.00,Wunderground v.1.15,2013-03-23 12:27:00,
2013-03-23 08:32:00,34.6,22.9,30.05,West,270,1.0,4.0,62,0.00,,,0.00,Wunderground v.1.15,2013-03-23 12:32:00,
2013-03-23 08:37:00,34.8,23.5,30.05,West,270,2.0,5.0,63,0.00,,,0.00,Wunderground v.1.15,2013-03-23 12:37:00,
2013-03-23 08:42:00,35.2,23.1,30.05,WSW,247,2.0,5.0,61,0.00,,,0.00,Wunderground v.1.15,2013-03-23 12:42:00,
2013-03-23 08:47:00,35.6,23.9,30.05,West,281,3.0,5.0,62,0.00,,,0.00,Wunderground v.1.15,2013-03-23 12:47:00,
2013-03-23 08:53:00,36.0,23.4,30.05,WSW,256,1.0,4.0,60,0.00,,,0.00,Wunderground v.1.15,2013-03-23 12:53:00,
2013-03-23 08:58:00,36.4,23.4,30.05,West,274,5.0,6.0,59,0.00,,,0.00,Wunderground v.1.15,2013-03-23 12:58:00,
2013-03-23 09:03:00,37.0,24.0,30.05,West,264,1.0,5.0,59,0.00,,,0.00,Wunderground v.1.15,2013-03-23 13:03:00,
2013-03-23 09:08:00,37.3,23.9,30.05,West,275,3.0,6.0,58,0.00,,,0.00,Wunderground v.1.15,2013-03-23 13:08:00,
2013-03-23 09:13:00,37.7,23.0,30.05,West,274,6.0,6.0,55,0.00,,,0.00,Wunderground v.1.15,2013-03-23 13:13:00,
2013-03-23 09:18:00,38.0,24.5,30.05,West,274,3.0,8.0,58,0.00,,,0.00,Wunderground v.1.15,2013-03-23 13:18:00,
2013-03-23 09:23:00,38.4,24.1,30.05,West,261,5.0,5.0,56,0.00,,,0.00,Wunderground v.1.15,2013-03-23 13:23:00,
2013-03-23 09:28:00,38.6,24.2,30.05,West,263,2.0,5.0,56,0.00,,,0.00,Wunderground v.1.15,2013-03-23 13:28:00,
2013-03-23 09:33:00,39.0,23.7,30.06,West,271,7.0,7.0,54,0.00,,,0.00,Wunderground v.1.15,2013-03-23 13:33:00,
2013-03-23 09:38:00,39.5,25.5,30.05,West,277,3.0,7.0,57,0.00,,,0.00,Wunderground v.1.15,2013-03-23 13:38:00,
2013-03-23 09:43:00,39.7,24.4,30.05,SW,228,4.0,7.0,54,0.00,,,0.00,Wunderground v.1.15,2013-03-23 13:43:00,
2013-03-23 09:48:00,40.5,25.1,30.06,West,261,7.0,7.0,54,0.00,,,0.00,Wunderground v.1.15,2013-03-23 13:48:00,
2013-03-23 09:53:00,40.6,24.3,30.06,West,278,9.0,9.0,52,0.00,,,0.00,Wunderground v.1.15,2013-03-23 13:53:00,
2013-03-23 09:58:00,40.8,25.0,30.06,West,262,6.0,11.0,53,0.00,,,0.00,Wunderground v.1.15,2013-03-23 13:58:00,
2013-03-23 10:03:00,40.9,24.1,30.06,West,260,6.0,9.0,51,0.00,,,0.00,Wunderground v.1.15,2013-03-23 14:03:00,
2013-03-23 10:08:00,41.5,25.2,30.06,West,276,5.0,9.0,52,0.00,,,0.00,Wunderground v.1.15,2013-03-23 14:08:00,
2013-03-23 10:13:00,42.5,25.6,30.06,West,269,6.0,10.0,51,0.00,,,0.00,Wunderground v.1.15,2013-03-23 14:13:00,
2013-03-23 10:18:00,42.3,23.5,30.06,West,281,2.0,11.0,47,0.00,,,0.00,Wunderground v.1.15,2013-03-23 14:18:00,
2013-03-23 10:23:00,42.0,24.7,30.06,West,277,4.0,11.0,50,0.00,,,0.00,Wunderground v.1.15,2013-03-23 14:23:00,
2013-03-23 10:28:00,42.7,25.3,30.06,SW,226,4.0,12.0,50,0.00,,,0.00,Wunderground v.1.15,2013-03-23 14:28:00,
2013-03-23 10:34:00,43.0,25.6,30.06,NW,304,7.0,7.0,50,0.00,,,0.00,Wunderground v.1.15,2013-03-23 14:34:00,
2013-03-23 10:39:00,43.2,24.8,30.07,WNW,288,3.0,8.0,48,0.00,,,0.00,Wunderground v.1.15,2013-03-23 14:39:00,
2013-03-23 10:44:00,43.7,26.3,30.07,WNW,285,8.0,12.0,50,0.00,,,0.00,Wunderground v.1.15,2013-03-23 14:44:00,
2013-03-23 10:49:00,44.2,26.7,30.06,WSW,257,4.0,12.0,50,0.00,,,0.00,Wunderground v.1.15,2013-03-23 14:49:00,
2013-03-23 10:54:00,44.2,25.7,30.07,WSW,257,5.0,12.0,48,0.00,,,0.00,Wunderground v.1.15,2013-03-23 14:54:00,
2013-03-23 10:59:00,44.3,26.8,30.06,WSW,240,0.0,12.0,50,0.00,,,0.00,Wunderground v.1.15,2013-03-23 14:59:00,
2013-03-23 11:04:00,44.6,25.1,30.06,West,275,5.0,9.0,46,0.00,,,0.00,Wunderground v.1.15,2013-03-23 15:04:00,
2013-03-23 11:09:00,44.3,26.3,30.06,WSW,253,6.0,13.0,49,0.00,,,0.00,Wunderground v.1.15,2013-03-23 15:09:00,
2013-03-23 11:14:00,44.5,26.5,30.05,WNW,285,10.0,13.0,49,0.00,,,0.00,Wunderground v.1.15,2013-03-23 15:14:00,
2013-03-23 11:19:00,44.3,25.8,30.05,West,279,14.0,16.0,48,0.00,,,0.00,Wunderground v.1.15,2013-03-23 15:19:00,
2013-03-23 11:24:00,44.2,25.2,30.05,WNW,286,13.0,18.0,47,0.00,,,0.00,Wunderground v.1.15,2013-03-23 15:24:00,
2013-03-23 11:29:00,44.8,26.3,30.04,West,261,10.0,18.0,48,0.00,,,0.00,Wunderground v.1.15,2013-03-23 15:29:00,
2013-03-23 11:34:00,44.8,25.3,30.04,West,267,4.0,11.0,46,0.00,,,0.00,Wunderground v.1.15,2013-03-23 15:34:00,
2013-03-23 11:39:00,45.4,26.3,30.03,West,259,9.0,15.0,47,0.00,,,0.00,Wunderground v.1.15,2013-03-23 15:39:00,
2013-03-23 11:44:00,45.5,25.4,30.03,WNW,294,11.0,15.0,45,0.00,,,0.00,Wunderground v.1.15,2013-03-23 15:44:00,
2013-03-23 11:49:00,45.5,25.9,30.03,WNW,291,8.0,16.0,46,0.00,,,0.00,Wunderground v.1.15,2013-03-23 15:49:00,
2013-03-23 11:54:00,45.7,26.1,30.03,WSW,256,11.0,12.0,46,0.00,,,0.00,Wunderground v.1.15,2013-03-23 15:54:00,
2013-03-23 11:59:00,46.0,26.9,30.03,West,276,11.0,12.0,47,0.00,,,0.00,Wunderground v.1.15,2013-03-23 15:59:00,
2013-03-23 12:04:00,46.3,26.6,30.02,West,274,8.0,15.0,46,0.00,,,0.00,Wunderground v.1.15,2013-03-23 16:04:00,
2013-03-23 12:09:00,45.7,25.5,30.02,West,273,5.0,15.0,45,0.00,,,0.00,Wunderground v.1.15,2013-03-23 16:09:00,
2013-03-23 12:14:00,46.0,26.9,30.02,NW,315,9.0,11.0,47,0.00,,,0.00,Wunderground v.1.15,2013-03-23 16:14:00,
2013-03-23 12:19:00,46.6,26.9,30.02,West,280,11.0,14.0,46,0.00,,,0.00,Wunderground v.1.15,2013-03-23 16:19:00,
2013-03-23 12:24:00,47.9,27.6,30.02,West,273,10.0,14.0,45,0.00,,,0.00,Wunderground v.1.15,2013-03-23 16:24:00,
2013-03-23 12:29:00,48.1,25.5,30.02,WSW,246,7.0,16.0,41,0.00,,,0.00,Wunderground v.1.15,2013-03-23 16:29:00,
2013-03-23 12:34:00,47.3,25.9,30.01,West,265,9.0,15.0,43,0.00,,,0.00,Wunderground v.1.15,2013-03-23 16:34:00,
2013-03-23 12:39:00,47.2,26.4,30.01,West,280,10.0,17.0,44,0.00,,,0.00,Wunderground v.1.15,2013-03-23 16:39:00,
2013-03-23 12:44:00,48.8,28.4,30.01,WSW,256,5.0,11.0,45,0.00,,,0.00,Wunderground v.1.15,2013-03-23 16:44:00,
2013-03-23 12:49:00,48.8,26.1,30.01,WNW,299,7.0,11.0,41,0.00,,,0.00,Wunderground v.1.15,2013-03-23 16:49:00,
2013-03-23 12:54:00,48.6,25.9,30.01,WSW,242,5.0,16.0,41,0.00,,,0.00,Wunderground v.1.15,2013-03-23 16:54:00,
2013-03-23 12:59:00,49.7,28.1,30.00,WNW,283,7.0,16.0,43,0.00,,,0.00,Wunderground v.1.15,2013-03-23 16:59:00,
2013-03-23 13:04:00,49.1,27.0,30.01,WSW,248,3.0,12.0,42,0.00,,,0.00,Wunderground v.1.15,2013-03-23 17:04:00,
2013-03-23 13:09:00,49.6,26.2,30.00,WNW,282,6.0,14.0,40,0.00,,,0.00,Wunderground v.1.15,2013-03-23 17:09:00,
2013-03-23 13:14:00,49.7,26.3,30.00,West,261,12.0,13.0,40,0.00,,,0.00,Wunderground v.1.15,2013-03-23 17:14:00,
2013-03-23 13:19:00,50.1,27.9,30.00,WNW,288,10.0,16.0,42,0.00,,,0.00,Wunderground v.1.15,2013-03-23 17:19:00,
2013-03-23 13:24:00,50.8,28.5,29.99,West,274,6.0,12.0,42,0.00,,,0.00,Wunderground v.1.15,2013-03-23 17:24:00,
2013-03-23 13:29:00,49.8,27.0,29.99,West,264,14.0,16.0,41,0.00,,,0.00,Wunderground v.1.15,2013-03-23 17:29:00,
2013-03-23 13:34:00,49.4,27.8,29.99,NW,305,4.0,17.0,43,0.00,,,0.00,Wunderground v.1.15,2013-03-23 17:34:00,
2013-03-23 13:39:00,50.3,26.9,29.99,WSW,256,5.0,17.0,40,0.00,,,0.00,Wunderground v.1.15,2013-03-23 17:39:00,
2013-03-23 13:44:00,49.4,26.7,29.99,WSW,242,7.0,11.0,41,0.00,,,0.00,Wunderground v.1.15,2013-03-23 17:44:00,
2013-03-23 13:49:00,49.2,25.9,29.99,West,263,7.0,13.0,40,0.00,,,0.00,Wunderground v.1.15,2013-03-23 17:49:00,
2013-03-23 13:54:00,49.2,27.6,29.99,WSW,244,3.0,6.0,43,0.00,,,0.00,Wunderground v.1.15,2013-03-23 17:54:00,
2013-03-23 13:59:00,50.6,29.5,29.98,NW,307,9.0,10.0,44,0.00,,,0.00,Wunderground v.1.15,2013-03-23 17:59:00,
2013-03-23 14:04:00,50.8,27.3,29.98,West,280,14.0,18.0,40,0.00,,,0.00,Wunderground v.1.15,2013-03-23 18:04:00,
2013-03-23 14:09:00,50.5,27.0,29.98,WSW,239,5.0,18.0,40,0.00,,,0.00,Wunderground v.1.15,2013-03-23 18:09:00,
2013-03-23 14:14:00,50.3,25.6,29.97,WNW,288,11.0,11.0,38,0.00,,,0.00,Wunderground v.1.15,2013-03-23 18:14:00,
2013-03-23 14:19:00,50.9,26.8,29.97,WSW,257,1.0,6.0,39,0.00,,,0.00,Wunderground v.1.15,2013-03-23 18:19:00,
2013-03-23 14:24:00,52.2,28.0,29.96,West,277,4.0,10.0,39,0.00,,,0.00,Wunderground v.1.15,2013-03-23 18:24:00,
2013-03-23 14:29:00,51.6,26.1,29.96,West,270,6.0,6.0,37,0.00,,,0.00,Wunderground v.1.15,2013-03-23 18:29:00,
2013-03-23 14:34:00,51.5,27.3,29.96,WNW,303,5.0,13.0,39,0.00,,,0.00,Wunderground v.1.15,2013-03-23 18:34:00,
2013-03-23 14:40:00,51.9,25.8,29.96,WSW,239,9.0,10.0,36,0.00,,,0.00,Wunderground v.1.15,2013-03-23 18:40:00,
2013-03-23 14:45:00,50.9,26.2,29.96,SSW,198,5.0,10.0,38,0.00,,,0.00,Wunderground v.1.15,2013-03-23 18:45:00,
2013-03-23 14:50:00,51.7,25.6,29.96,West,265,8.0,8.0,36,0.00,,,0.00,Wunderground v.1.15,2013-03-23 18:50:00,
2013-03-23 14:55:00,52.1,26.6,29.96,West,268,18.0,18.0,37,0.00,,,0.00,Wunderground v.1.15,2013-03-23 18:55:00,
2013-03-23 15:00:00,51.3,25.9,29.96,West,273,9.0,15.0,37,0.00,,,0.00,Wunderground v.1.15,2013-03-23 19:00:00,
2013-03-23 15:05:00,51.2,27.1,29.96,WNW,294,2.0,15.0,39,0.00,,,0.00,Wunderground v.1.15,2013-03-23 19:05:00,
2013-03-23 15:10:00,51.5,25.4,29.96,NW,304,5.0,9.0,36,0.00,,,0.00,Wunderground v.1.15,2013-03-23 19:10:00,
2013-03-23 15:15:00,51.7,25.6,29.96,West,263,6.0,17.0,36,0.00,,,0.00,Wunderground v.1.15,2013-03-23 19:15:00,
2013-03-23 15:20:00,51.9,27.1,29.95,West,272,10.0,11.0,38,0.00,,,0.00,Wunderground v.1.15,2013-03-23 19:20:00,
2013-03-23 15:25:00,51.6,26.1,29.95,WNW,302,8.0,16.0,37,0.00,,,0.00,Wunderground v.1.15,2013-03-23 19:25:00,
2013-03-23 15:30:00,51.8,26.3,29.96,WNW,300,6.0,10.0,37,0.00,,,0.00,Wunderground v.1.15,2013-03-23 19:30:00,
2013-03-23 15:35:00,51.6,25.5,29.96,West,264,6.0,10.0,36,0.00,,,0.00,Wunderground v.1.15,2013-03-23 19:35:00,
2013-03-23 15:40:00,51.2,25.1,29.95,WSW,250,6.0,11.0,36,0.00,,,0.00,Wunderground v.1.15,2013-03-23 19:40:00,
2013-03-23 15:45:00,51.0,25.0,29.95,NW,308,12.0,15.0,36,0.00,,,0.00,Wunderground v.1.15,2013-03-23 19:45:00,
2013-03-23 15:50:00,51.3,25.9,29.95,SW,217,5.0,8.0,37,0.00,,,0.00,Wunderground v.1.15,2013-03-23 19:50:00,
2013-03-23 15:55:00,51.5,24.0,29.95,WSW,257,4.0,10.0,34,0.00,,,0.00,Wunderground v.1.15,2013-03-23 19:55:00,
2013-03-23 16:00:00,51.7,24.9,29.94,West,273,6.0,7.0,35,0.00,,,0.00,Wunderground v.1.15,2013-03-23 20:00:00,
2013-03-23 16:05:00,52.2,25.3,29.94,West,276,6.0,14.0,35,0.00,,,0.00,Wunderground v.1.15,2013-03-23 20:05:00,
2013-03-23 16:10:00,51.7,24.9,29.94,West,280,10.0,12.0,35,0.00,,,0.00,Wunderground v.1.15,2013-03-23 20:10:00,
2013-03-23 16:15:00,52.1,25.9,29.94,WSW,258,7.0,12.0,36,0.00,,,0.00,Wunderground v.1.15,2013-03-23 20:15:00,
2013-03-23 16:20:00,51.9,25.1,29.94,West,280,6.0,8.0,35,0.00,,,0.00,Wunderground v.1.15,2013-03-23 20:20:00,
2013-03-23 16:25:00,52.2,26.7,29.94,WSW,240,7.0,10.0,37,0.00,,,0.00,Wunderground v.1.15,2013-03-23 20:25:00,
2013-03-23 16:30:00,52.2,25.3,29.94,SW,215,8.0,8.0,35,0.00,,,0.00,Wunderground v.1.15,2013-03-23 20:30:00,
2013-03-23 16:35:00,51.9,25.1,29.94,West,260,4.0,11.0,35,0.00,,,0.00,Wunderground v.1.15,2013-03-23 20:35:00,
2013-03-23 16:40:00,52.3,24.7,29.94,WSW,246,5.0,6.0,34,0.00,,,0.00,Wunderground v.1.15,2013-03-23 20:40:00,
2013-03-23 16:45:00,52.3,26.1,29.94,West,272,4.0,7.0,36,0.00,,,0.00,Wunderground v.1.15,2013-03-23 20:45:00,
2013-03-23 16:50:00,52.5,24.9,29.94,WNW,298,4.0,8.0,34,0.00,,,0.00,Wunderground v.1.15,2013-03-23 20:50:00,
2013-03-23 16:55:00,52.3,24.7,29.94,West,275,7.0,10.0,34,0.00,,,0.00,Wunderground v.1.15,2013-03-23 20:55:00,
2013-03-23 17:00:00,52.2,26.0,29.94,WNW,290,4.0,7.0,36,0.00,,,0.00,Wunderground v.1.15,2013-03-23 21:00:00,
2013-03-23 17:05:00,52.1,25.3,29.94,West,277,4.0,11.0,35,0.00,,,0.00,Wunderground v.1.15,2013-03-23 21:05:00,
2013-03-23 17:10:00,52.2,25.3,29.94,West,263,11.0,14.0,35,0.00,,,0.00,Wunderground v.1.15,2013-03-23 21:10:00,
2013-03-23 17:15:00,51.9,25.1,29.94,NW,304,4.0,14.0,35,0.00,,,0.00,Wunderground v.1.15,2013-03-23 21:15:00,
2013-03-23 17:20:00,52.2,25.3,29.94,West,278,5.0,8.0,35,0.00,,,0.00,Wunderground v.1.15,2013-03-23 21:20:00,
2013-03-23 17:25:00,52.4,25.5,29.94,West,279,9.0,11.0,35,0.00,,,0.00,Wunderground v.1.15,2013-03-23 21:25:00,
2013-03-23 17:30:00,52.3,24.7,29.94,West,274,14.0,14.0,34,0.00,,,0.00,Wunderground v.1.15,2013-03-23 21:30:00,
2013-03-23 17:35:00,52.2,24.6,29.94,West,267,7.0,14.0,34,0.00,,,0.00,Wunderground v.1.15,2013-03-23 21:35:00,
2013-03-23 17:40:00,52.4,24.8,29.93,WNW,289,14.0,15.0,34,0.00,,,0.00,Wunderground v.1.15,2013-03-23 21:40:00,
2013-03-23 17:45:00,52.2,23.9,29.94,West,270,9.0,15.0,33,0.00,,,0.00,Wunderground v.1.15,2013-03-23 21:45:00,
2013-03-23 17:50:00,52.2,24.6,29.94,West,269,9.0,10.0,34,0.00,,,0.00,Wunderground v.1.15,2013-03-23 21:50:00,
2013-03-23 17:55:00,51.9,24.4,29.94,WNW,302,8.0,19.0,34,0.00,,,0.00,Wunderground v.1.15,2013-03-23 21:55:00,
2013-03-23 18:00:00,52.0,24.5,29.94,West,278,6.0,9.0,34,0.00,,,0.00,Wunderground v.1.15,2013-03-23 22:00:00,
2013-03-23 18:05:00,52.0,25.2,29.94,West,278,8.0,10.0,35,0.00,,,0.00,Wunderground v.1.15,2013-03-23 22:05:00,
2013-03-23 18:10:00,51.7,23.5,29.94,West,272,4.0,8.0,33,0.00,,,0.00,Wunderground v.1.15,2013-03-23 22:10:00,
2013-03-23 18:15:00,51.7,24.9,29.94,West,281,5.0,9.0,35,0.00,,,0.00,Wunderground v.1.15,2013-03-23 22:15:00,
2013-03-23 18:20:00,51.4,24.6,29.94,West,277,5.0,7.0,35,0.00,,,0.00,Wunderground v.1.15,2013-03-23 22:20:00,
2013-03-23 18:25:00,51.1,25.0,29.94,West,281,4.0,8.0,36,0.00,,,0.00,Wunderground v.1.15,2013-03-23 22:25:00,
2013-03-23 18:30:00,51.1,24.4,29.94,WNW,302,6.0,8.0,35,0.00,,,0.00,Wunderground v.1.15,2013-03-23 22:30:00,
2013-03-23 18:35:00,51.0,22.9,29.95,WSW,248,9.0,13.0,33,0.00,,,0.00,Wunderground v.1.15,2013-03-23 22:35:00,
2013-03-23 18:40:00,51.0,24.3,29.95,WNW,296,7.0,12.0,35,0.00,,,0.00,Wunderground v.1.15,2013-03-23 22:40:00,
2013-03-23 18:45:00,50.8,24.1,29.94,WNW,298,6.0,12.0,35,0.00,,,0.00,Wunderground v.1.15,2013-03-23 22:45:00,
2013-03-23 18:50:00,50.6,23.9,29.94,WNW,299,3.0,8.0,35,0.00,,,0.00,Wunderground v.1.15,2013-03-23 22:50:00,
2013-03-23 18:55:00,50.3,24.3,29.94,West,275,11.0,12.0,36,0.00,,,0.00,Wunderground v.1.15,2013-03-23 22:55:00,
2013-03-23 19:00:00,50.3,24.3,29.94,WNW,294,8.0,10.0,36,0.00,,,0.00,Wunderground v.1.15,2013-03-23 23:00:00,
2013-03-23 19:05:00,50.0,24.7,29.94,WNW,299,4.0,10.0,37,0.00,,,0.00,Wunderground v.1.15,2013-03-23 23:05:00,
2013-03-23 19:10:00,49.5,24.9,29.95,West,276,4.0,6.0,38,0.00,,,0.00,Wunderground v.1.15,2013-03-23 23:10:00,
2013-03-23 19:15:00,49.2,24.6,29.95,West,273,5.0,10.0,38,0.00,,,0.00,Wunderground v.1.15,2013-03-23 23:15:00,
2013-03-23 19:20:00,49.2,24.6,29.95,WNW,290,7.0,10.0,38,0.00,,,0.00,Wunderground v.1.15,2013-03-23 23:20:00,
2013-03-23 19:26:00,49.1,24.6,29.95,West,275,4.0,10.0,38,0.00,,,0.00,Wunderground v.1.15,2013-03-23 23:26:00,
2013-03-23 19:31:00,48.7,24.8,29.95,WNW,302,5.0,7.0,39,0.00,,,0.00,Wunderground v.1.15,2013-03-23 23:31:00,
2013-03-23 19:36:00,48.5,24.6,29.96,WNW,292,3.0,7.0,39,0.00,,,0.00,Wunderground v.1.15,2013-03-23 23:36:00,
2013-03-23 19:41:00,47.9,25.3,29.96,WNW,290,7.0,10.0,41,0.00,,,0.00,Wunderground v.1.15,2013-03-23 23:41:00,
2013-03-23 19:46:00,48.1,24.9,29.96,West,280,3.0,10.0,40,0.00,,,0.00,Wunderground v.1.15,2013-03-23 23:46:00,
2013-03-23 19:51:00,48.1,24.9,29.96,WNW,302,4.0,6.0,40,0.00,,,0.00,Wunderground v.1.15,2013-03-23 23:51:00,
2013-03-23 19:56:00,47.8,24.6,29.96,WNW,303,3.0,6.0,40,0.00,,,0.00,Wunderground v.1.15,2013-03-23 23:56:00,
2013-03-23 20:01:00,47.5,24.9,29.97,WNW,292,2.0,5.0,41,0.00,,,0.00,Wunderground v.1.15,2013-03-24 00:01:00,
2013-03-23 20:06:00,47.4,24.9,29.97,NW,308,2.0,6.0,41,0.00,,,0.00,Wunderground v.1.15,2013-03-24 00:06:00,
2013-03-23 20:11:00,46.7,24.8,29.98,NW,308,2.0,4.0,42,0.00,,,0.00,Wunderground v.1.15,2013-03-24 00:11:00,
2013-03-23 20:17:00,46.6,24.7,29.98,West,264,4.0,8.0,42,0.00,,,0.00,Wunderground v.1.15,2013-03-24 00:17:00,
2013-03-23 20:22:00,46.4,24.5,29.98,West,273,6.0,7.0,42,0.00,,,0.00,Wunderground v.1.15,2013-03-24 00:22:00,
2013-03-23 20:27:00,46.2,24.3,29.98,NW,307,4.0,7.0,42,0.00,,,0.00,Wunderground v.1.15,2013-03-24 00:27:00,
2013-03-23 20:32:00,45.9,24.1,29.98,West,269,4.0,5.0,42,0.00,,,0.00,Wunderground v.1.15,2013-03-24 00:32:00,
2013-03-23 20:37:00,45.8,24.5,29.98,WNW,285,3.0,6.0,43,0.00,,,0.00,Wunderground v.1.15,2013-03-24 00:37:00,
2013-03-23 20:42:00,45.6,24.4,29.98,West,277,7.0,7.0,43,0.00,,,0.00,Wunderground v.1.15,2013-03-24 00:42:00,
2013-03-23 20:47:00,45.8,24.0,29.98,NW,306,5.0,7.0,42,0.00,,,0.00,Wunderground v.1.15,2013-03-24 00:47:00,
2013-03-23 20:52:00,45.8,24.0,29.99,NW,315,4.0,7.0,42,0.00,,,0.00,Wunderground v.1.15,2013-03-24 00:52:00,
2013-03-23 20:57:00,45.8,24.0,29.99,West,278,2.0,9.0,42,0.00,,,0.00,Wunderground v.1.15,2013-03-24 00:57:00,
2013-03-23 21:02:00,45.5,23.7,29.99,WNW,290,3.0,6.0,42,0.00,,,0.00,Wunderground v.1.15,2013-03-24 01:02:00,
2013-03-23 21:07:00,45.3,23.5,29.99,WNW,298,5.0,6.0,42,0.00,,,0.00,Wunderground v.1.15,2013-03-24 01:07:00,
2013-03-23 21:12:00,45.2,23.4,29.99,WNW,300,1.0,3.0,42,0.00,,,0.00,Wunderground v.1.15,2013-03-24 01:12:00,
2013-03-23 21:17:00,44.8,23.6,30.00,NW,308,1.0,4.0,43,0.00,,,0.00,Wunderground v.1.15,2013-03-24 01:17:00,
2013-03-23 21:22:00,44.6,23.5,30.00,West,272,3.0,4.0,43,0.00,,,0.00,Wunderground v.1.15,2013-03-24 01:22:00,
2013-03-23 21:27:00,44.2,23.6,30.00,West,276,2.0,4.0,44,0.00,,,0.00,Wunderground v.1.15,2013-03-24 01:27:00,
2013-03-23 21:32:00,44.2,23.6,30.00,West,279,6.0,7.0,44,0.00,,,0.00,Wunderground v.1.15,2013-03-24 01:32:00,
2013-03-23 21:37:00,44.2,23.6,30.00,WNW,286,4.0,7.0,44,0.00,,,0.00,Wunderground v.1.15,2013-03-24 01:37:00,
2013-03-23 21:42:00,44.1,23.6,30.00,NW,304,2.0,4.0,44,0.00,,,0.00,Wunderground v.1.15,2013-03-24 01:42:00,
2013-03-23 21:47:00,43.9,23.9,30.00,NW,310,1.0,5.0,45,0.00,,,0.00,Wunderground v.1.15,2013-03-24 01:47:00,
2013-03-23 21:52:00,43.7,23.7,29.99,NNW,330,1.0,6.0,45,0.00,,,0.00,Wunderground v.1.15,2013-03-24 01:52:00,
2013-03-23 21:57:00,43.8,23.8,30.00,NW,305,4.0,6.0,45,0.00,,,0.00,Wunderground v.1.15,2013-03-24 01:57:00,
2013-03-23 22:02:00,43.6,23.6,30.00,NNW,330,0.0,3.0,45,0.00,,,0.00,Wunderground v.1.15,2013-03-24 02:02:00,
2013-03-23 22:07:00,43.4,23.4,30.00,NNW,330,1.0,3.0,45,0.00,,,0.00,Wunderground v.1.15,2013-03-24 02:07:00,
2013-03-23 22:12:00,43.1,23.7,30.00,NNW,330,1.0,3.0,46,0.00,,,0.00,Wunderground v.1.15,2013-03-24 02:12:00,
2013-03-23 22:17:00,43.0,23.6,30.00,NW,314,2.0,4.0,46,0.00,,,0.00,Wunderground v.1.15,2013-03-24 02:17:00,
2013-03-23 22:22:00,43.0,24.1,30.00,WNW,302,4.0,4.0,47,0.00,,,0.00,Wunderground v.1.15,2013-03-24 02:22:00,
2013-03-23 22:28:00,42.8,23.9,30.00,NW,317,2.0,4.0,47,0.00,,,0.00,Wunderground v.1.15,2013-03-24 02:28:00,
2013-03-23 22:33:00,42.6,23.8,30.01,NW,315,2.0,5.0,47,0.00,,,0.00,Wunderground v.1.15,2013-03-24 02:33:00,
2013-03-23 22:38:00,42.6,23.8,30.01,WNW,302,2.0,5.0,47,0.00,,,0.00,Wunderground v.1.15,2013-03-24 02:38:00,
2013-03-23 22:43:00,42.3,24.0,30.01,WNW,298,2.0,3.0,48,0.00,,,0.00,Wunderground v.1.15,2013-03-24 02:43:00,
2013-03-23 22:48:00,42.3,24.0,30.01,NW,308,1.0,3.0,48,0.00,,,0.00,Wunderground v.1.15,2013-03-24 02:48:00,
2013-03-23 22:53:00,42.4,24.1,30.01,NW,308,1.0,3.0,48,0.00,,,0.00,Wunderground v.1.15,2013-03-24 02:53:00,
2013-03-23 22:58:00,42.3,24.0,30.01,WNW,295,2.0,6.0,48,0.00,,,0.00,Wunderground v.1.15,2013-03-24 02:58:00,
2013-03-23 23:03:00,41.9,24.1,30.02,NW,311,2.0,3.0,49,0.00,,,0.00,Wunderground v.1.15,2013-03-24 03:03:00,
2013-03-23 23:08:00,41.6,24.3,30.02,NNW,330,1.0,4.0,50,0.00,,,0.00,Wunderground v.1.15,2013-03-24 03:08:00,
2013-03-23 23:13:00,41.6,24.3,30.02,NNW,340,3.0,3.0,50,0.00,,,0.00,Wunderground v.1.15,2013-03-24 03:13:00,
2013-03-23 23:18:00,41.5,24.2,30.01,NW,317,3.0,5.0,50,0.00,,,0.00,Wunderground v.1.15,2013-03-24 03:18:00,
2013-03-23 23:23:00,41.4,24.6,30.02,NNW,344,3.0,4.0,51,0.00,,,0.00,Wunderground v.1.15,2013-03-24 03:23:00,
2013-03-23 23:28:00,41.0,24.2,30.01,NNW,335,0.0,4.0,51,0.00,,,0.00,Wunderground v.1.15,2013-03-24 03:28:00,
2013-03-23 23:33:00,41.0,24.7,30.02,NW,311,0.0,6.0,52,0.00,,,0.00,Wunderground v.1.15,2013-03-24 03:33:00,
2013-03-23 23:38:00,40.9,24.1,30.02,North,351,1.0,6.0,51,0.00,,,0.00,Wunderground v.1.15,2013-03-24 03:38:00,
2013-03-23 23:43:00,40.8,24.5,30.02,North,352,2.0,4.0,52,0.00,,,0.00,Wunderground v.1.15,2013-03-24 03:43:00,
2013-03-23 23:48:00,40.5,24.2,30.02,NNW,330,1.0,5.0,52,0.00,,,0.00,Wunderground v.1.15,2013-03-24 03:48:00,
2013-03-23 23:53:00,40.4,24.6,30.01,NNW,335,2.0,6.0,53,0.00,,,0.00,Wunderground v.1.15,2013-03-24 03:53:00,
2013-03-23 23:58:00,40.1,24.3,30.02,West,269,2.0,6.0,53,0.00,,,0.00,Wunderground v.1.15,2013-03-24 03:58:00,